CDG8001 ZSJN-RKSI

Flight info

Callsign CDG8001
Flight time 1h 16m
Altitude 37100
Route BASOV7Y BASOV W4 IKEKA A591 AGAVO/N0449F370 Y644 GONAV
Aircraft B738/M-SDFGHIRWY/LB1

Departure

Time 2026-04-23 20:29
Airport Jinan Yaoqiang International Airport (ZSJN)

Arrival

Time 2026-04-23 21:45
Airport Incheon International Airport (RKSI)
Time Latitude Longitude Altitude Speed Heading
2026-04-23 19:59 36.85431 117.20997 83 ft 0 kts 336°
2026-04-23 20:17 36.85421 117.21003 83 ft 2 kts 335°
2026-04-23 20:17 36.85407 117.21011 83 ft 2 kts 336°
2026-04-23 20:17 36.85393 117.21018 83 ft 2 kts 336°
2026-04-23 20:18 36.85379 117.21021 83 ft 2 kts
2026-04-23 20:18 36.85364 117.21015 83 ft 2 kts 34°
2026-04-23 20:18 36.85354 117.21002 83 ft 1 kts 60°
2026-04-23 20:18 36.85351 117.20995 83 ft 1 kts 68°
2026-04-23 20:19 36.85350 117.20991 83 ft 0 kts 66°
2026-04-23 20:21 36.85359 117.21016 83 ft 8 kts 65°
2026-04-23 20:21 36.85398 117.21121 83 ft 17 kts 65°
2026-04-23 20:21 36.85444 117.21245 83 ft 10 kts 62°
2026-04-23 20:22 36.85534 117.21274 83 ft 17 kts 360°
2026-04-23 20:22 36.85688 117.21274 83 ft 26 kts
2026-04-23 20:22 36.85874 117.21274 83 ft 25 kts 360°
2026-04-23 20:22 36.86029 117.21274 83 ft 18 kts
2026-04-23 20:23 36.86151 117.21273 83 ft 17 kts
2026-04-23 20:23 36.86291 117.21273 83 ft 21 kts
2026-04-23 20:23 36.86451 117.21273 83 ft 23 kts 360°
2026-04-23 20:23 36.86610 117.21273 83 ft 17 kts 360°
2026-04-23 20:24 36.86692 117.21293 83 ft 10 kts 52°
2026-04-23 20:24 36.86723 117.21369 83 ft 11 kts 24°
2026-04-23 20:24 36.86828 117.21375 83 ft 19 kts 359°
2026-04-23 20:24 36.86980 117.21374 83 ft 18 kts
2026-04-23 20:25 36.87111 117.21375 83 ft 16 kts 360°
2026-04-23 20:25 36.87225 117.21374 83 ft 17 kts 360°
2026-04-23 20:25 36.87321 117.21380 83 ft 9 kts 23°
2026-04-23 20:25 36.87342 117.21472 83 ft 14 kts 90°
2026-04-23 20:26 36.87342 117.21490 83 ft 1 kts 89°
2026-04-23 20:26 36.87342 117.21557 83 ft 7 kts 90°
2026-04-23 20:26 36.87324 117.21598 83 ft 5 kts 167°
2026-04-23 20:26 36.87317 117.21599 83 ft 0 kts 179°
2026-04-23 20:28 36.87314 117.21599 83 ft 2 kts 179°
2026-04-23 20:28 36.87123 117.21599 83 ft 61 kts 180°
2026-04-23 20:28 36.86476 117.21599 83 ft 122 kts 180°
2026-04-23 20:29 36.85447 117.21601 106 ft 168 kts 181°
2026-04-23 20:29 36.84298 117.21605 810 ft 163 kts 183°
2026-04-23 20:29 36.83201 117.21622 1545 ft 161 kts 184°
2026-04-23 20:29 36.82105 117.21734 2186 ft 163 kts 170°
2026-04-23 20:30 36.81137 117.22624 2572 ft 189 kts 130°
2026-04-23 20:30 36.80823 117.26023 3462 ft 218 kts 87°
2026-04-23 20:30 36.81028 117.27988 3758 ft 237 kts 85°
2026-04-23 20:31 36.81254 117.30099 4131 ft 253 kts 86°
2026-04-23 20:31 36.81492 117.32301 4637 ft 263 kts 81°
2026-04-23 20:31 36.82099 117.34456 5220 ft 270 kts 58°
2026-04-23 20:31 36.83417 117.36087 5866 ft 271 kts 29°
2026-04-23 20:32 36.85214 117.36916 6268 ft 280 kts
2026-04-23 20:32 36.87175 117.37000 6838 ft 285 kts 356°
2026-04-23 20:32 36.89135 117.36939 7555 ft 286 kts 356°
2026-04-23 20:32 36.91129 117.36894 8296 ft 287 kts 357°
2026-04-23 20:33 36.93118 117.36878 9060 ft 288 kts 358°
2026-04-23 20:33 36.95143 117.36878 9832 ft 289 kts 358°
2026-04-23 20:33 36.97152 117.36884 10506 ft 294 kts 359°
2026-04-23 20:33 36.99240 117.36890 10923 ft 308 kts 359°
2026-04-23 20:34 37.01429 117.36894 11339 ft 322 kts 359°
2026-04-23 20:34 37.03745 117.36899 11765 ft 337 kts 359°
2026-04-23 20:34 37.06123 117.36903 12212 ft 349 kts 359°
2026-04-23 20:34 37.08572 117.36908 12929 ft 354 kts 359°
2026-04-23 20:35 37.11028 117.36919 13685 ft 357 kts
2026-04-23 20:35 37.13510 117.37132 14475 ft 359 kts
2026-04-23 20:35 37.15990 117.37561 15250 ft 362 kts
2026-04-23 20:35 37.18501 117.38094 15996 ft 365 kts
2026-04-23 20:36 37.21001 117.38652 16727 ft 368 kts
2026-04-23 20:36 37.23527 117.39208 17391 ft 373 kts
2026-04-23 20:36 37.26096 117.39756 18140 ft 374 kts
2026-04-23 20:36 37.28651 117.40356 18752 ft 379 kts 13°
2026-04-23 20:37 37.31131 117.41424 19418 ft 383 kts 24°
2026-04-23 20:37 37.33458 117.43118 20030 ft 388 kts 34°
2026-04-23 20:37 37.35496 117.45338 20617 ft 394 kts 44°
2026-04-23 20:37 37.37204 117.48032 21162 ft 400 kts 55°
2026-04-23 20:38 37.38523 117.51153 21749 ft 406 kts 65°
2026-04-23 20:38 37.39375 117.54523 22298 ft 411 kts 75°
2026-04-23 20:38 37.39755 117.58096 22825 ft 417 kts 85°
2026-04-23 20:38 37.39805 117.61764 23334 ft 422 kts 88°
2026-04-23 20:39 37.39809 117.65424 23890 ft 424 kts 88°
2026-04-23 20:39 37.39883 117.69164 24416 ft 427 kts 85°
2026-04-23 20:39 37.40057 117.72876 24941 ft 429 kts 84°
2026-04-23 20:39 37.40325 117.76601 25480 ft 432 kts 82°
2026-04-23 20:40 37.40666 117.80347 25990 ft 434 kts 81°
2026-04-23 20:40 37.41063 117.84121 26512 ft 436 kts 80°
2026-04-23 20:40 37.41494 117.87900 26997 ft 439 kts 79°
2026-04-23 20:40 37.41947 117.91682 27454 ft 442 kts 79°
2026-04-23 20:41 37.42416 117.95498 27951 ft 444 kts 79°
2026-04-23 20:41 37.42892 117.99332 28409 ft 447 kts 79°
2026-04-23 20:41 37.43375 118.03194 28868 ft 450 kts 79°
2026-04-23 20:41 37.43862 118.07086 29283 ft 453 kts 79°
2026-04-23 20:42 37.44349 118.10983 29754 ft 454 kts 79°
2026-04-23 20:42 37.44830 118.14856 30435 ft 450 kts 79°
2026-04-23 20:42 37.45307 118.18713 31015 ft 448 kts 79°
2026-04-23 20:42 37.45786 118.22581 31451 ft 449 kts 79°
2026-04-23 20:43 37.46272 118.26457 31935 ft 448 kts 79°
2026-04-23 20:43 37.46760 118.30296 32355 ft 448 kts 78°
2026-04-23 20:43 37.47266 118.34255 32811 ft 447 kts 78°
2026-04-23 20:43 37.47769 118.38187 33249 ft 447 kts 78°
2026-04-23 20:44 37.48268 118.42096 33654 ft 447 kts 78°
2026-04-23 20:44 37.48756 118.45940 34034 ft 447 kts 78°
2026-04-23 20:44 37.49249 118.49838 34387 ft 447 kts 78°
2026-04-23 20:44 37.49730 118.53665 34706 ft 448 kts 78°
2026-04-23 20:45 37.50220 118.57577 35012 ft 448 kts 79°
2026-04-23 20:45 37.50708 118.61476 35259 ft 448 kts 78°
2026-04-23 20:45 37.51186 118.65301 35516 ft 449 kts 79°
2026-04-23 20:45 37.51671 118.69198 35741 ft 450 kts 79°
2026-04-23 20:46 37.52162 118.73153 35958 ft 451 kts 79°
2026-04-23 20:46 37.52647 118.77080 36196 ft 452 kts 80°
2026-04-23 20:46 37.53105 118.80974 36420 ft 453 kts 81°
2026-04-23 20:46 37.53473 118.84936 36688 ft 454 kts 83°
2026-04-23 20:47 37.53774 118.88900 36923 ft 455 kts 84°
2026-04-23 20:47 37.54043 118.92820 37035 ft 457 kts 84°
2026-04-23 20:47 37.54576 119.00830 37051 ft 455 kts 84°
2026-04-23 20:48 37.55113 119.08727 37051 ft 455 kts 83°
2026-04-23 20:48 37.55673 119.16722 37048 ft 456 kts 83°
2026-04-23 20:49 37.56234 119.24648 37053 ft 455 kts 83°
2026-04-23 20:49 37.56797 119.32591 37076 ft 457 kts 83°
2026-04-23 20:50 37.57357 119.40512 37059 ft 455 kts 83°
2026-04-23 20:50 37.57916 119.48496 37099 ft 457 kts 83°
2026-04-23 20:51 37.58466 119.56447 37057 ft 457 kts 83°
2026-04-23 20:51 37.58991 119.64366 37048 ft 457 kts 83°
2026-04-23 20:52 37.59541 119.72353 37088 ft 458 kts 83°
2026-04-23 20:52 37.60143 119.80353 37081 ft 457 kts 83°
2026-04-23 20:53 37.60747 119.88283 37071 ft 457 kts 83°
2026-04-23 20:53 37.61349 119.96275 37070 ft 458 kts 83°
2026-04-23 20:54 37.61936 120.04208 37064 ft 456 kts 83°
2026-04-23 20:54 37.62518 120.12180 37077 ft 458 kts 83°
2026-04-23 20:55 37.63096 120.20179 37080 ft 459 kts 83°
2026-04-23 20:55 37.63664 120.28158 37074 ft 458 kts 83°
2026-04-23 20:56 37.64227 120.36146 37075 ft 459 kts 83°
2026-04-23 20:56 37.64785 120.44122 37081 ft 460 kts 83°
2026-04-23 20:57 37.65139 120.52168 37069 ft 460 kts 91°
2026-04-23 20:57 37.64762 120.56165 37075 ft 462 kts 102°
2026-04-23 20:57 37.63855 120.60035 37064 ft 462 kts 109°
2026-04-23 20:58 37.61478 120.67602 37084 ft 464 kts 113°
2026-04-23 20:58 37.58920 120.75048 37068 ft 462 kts 114°
2026-04-23 20:59 37.56415 120.82504 37094 ft 463 kts 112°
2026-04-23 20:59 37.53989 120.90032 37068 ft 462 kts 112°
2026-04-23 21:00 37.51604 120.97531 37074 ft 464 kts 112°
2026-04-23 21:00 37.49216 121.05051 37087 ft 465 kts 112°
2026-04-23 21:01 37.46816 121.12588 37072 ft 466 kts 112°
2026-04-23 21:01 37.44435 121.20153 37087 ft 468 kts 110°
2026-04-23 21:02 37.42378 121.27959 37105 ft 468 kts 107°
2026-04-23 21:02 37.40508 121.35739 37084 ft 467 kts 107°
2026-04-23 21:03 37.38622 121.43534 37087 ft 468 kts 107°
2026-04-23 21:03 37.36681 121.51372 37099 ft 470 kts 108°
2026-04-23 21:04 37.34712 121.59193 37096 ft 470 kts 108°
2026-04-23 21:04 37.32738 121.66963 37106 ft 472 kts 109°
2026-04-23 21:05 37.30735 121.74805 37111 ft 472 kts 109°
2026-04-23 21:05 37.28721 121.82653 37122 ft 472 kts 109°
2026-04-23 21:06 37.26698 121.90522 37113 ft 472 kts 109°
2026-04-23 21:06 37.24685 121.98332 37104 ft 474 kts 109°
2026-04-23 21:07 37.22657 122.06176 37115 ft 474 kts 109°
2026-04-23 21:07 37.20618 122.14029 37093 ft 473 kts 109°
2026-04-23 21:08 37.18022 122.21522 37096 ft 470 kts 126°
2026-04-23 21:08 37.15957 122.24670 37092 ft 466 kts 139°
2026-04-23 21:08 37.13524 122.27290 37104 ft 464 kts 144°
2026-04-23 21:09 37.08614 122.32556 37088 ft 468 kts 133°
2026-04-23 21:09 37.06809 122.35955 37098 ft 471 kts 117°
2026-04-23 21:09 37.05617 122.39772 37100 ft 477 kts 109°
2026-04-23 21:10 37.03739 122.47750 37115 ft 479 kts 106°
2026-04-23 21:10 37.02013 122.55747 37107 ft 476 kts 107°
2026-04-23 21:11 37.00240 122.63721 37104 ft 479 kts 107°
2026-04-23 21:11 36.98393 122.71736 37106 ft 478 kts 108°
2026-04-23 21:12 36.96527 122.79665 37107 ft 477 kts 108°
2026-04-23 21:12 36.94635 122.87623 37105 ft 477 kts 109°
2026-04-23 21:13 36.92728 122.95603 37097 ft 478 kts 109°
2026-04-23 21:13 36.90811 123.03598 37107 ft 480 kts 109°
2026-04-23 21:14 36.88898 123.11553 37110 ft 480 kts 108°
2026-04-23 21:14 36.86974 123.19534 37107 ft 480 kts 109°
2026-04-23 21:15 36.85163 123.27589 37107 ft 482 kts 102°
2026-04-23 21:15 36.84774 123.31776 37110 ft 485 kts 90°
2026-04-23 21:15 36.85092 123.35938 37114 ft 488 kts 77°
2026-04-23 21:16 36.86088 123.40011 37114 ft 487 kts 66°
2026-04-23 21:16 36.87505 123.43781 37108 ft 484 kts 60°
2026-04-23 21:16 36.90982 123.51000 37109 ft 482 kts 54°
2026-04-23 21:17 36.94725 123.57977 37112 ft 483 kts 53°
2026-04-23 21:17 36.98484 123.64962 37106 ft 481 kts 54°
2026-04-23 21:18 37.02198 123.71977 37105 ft 484 kts 55°
2026-04-23 21:18 37.05877 123.79024 37010 ft 480 kts 55°
2026-04-23 21:19 37.09513 123.86049 37010 ft 479 kts 55°
2026-04-23 21:19 37.13138 123.93078 36973 ft 480 kts 55°
2026-04-23 21:20 37.14874 123.96695 36445 ft 484 kts 61°
2026-04-23 21:20 37.16184 124.00556 35838 ft 484 kts 72°
2026-04-23 21:20 37.16885 124.04686 35255 ft 485 kts 82°
2026-04-23 21:20 37.17213 124.08870 34865 ft 479 kts 85°
2026-04-23 21:21 37.17399 124.12958 34633 ft 469 kts 87°
2026-04-23 21:21 37.17523 124.17035 34614 ft 461 kts 88°
2026-04-23 21:21 37.17729 124.25088 34502 ft 463 kts 88°
2026-04-23 21:22 37.17824 124.29171 34016 ft 463 kts 88°
2026-04-23 21:22 37.17905 124.33144 33636 ft 457 kts 88°
2026-04-23 21:22 37.17982 124.37112 33233 ft 452 kts 88°
2026-04-23 21:22 37.18058 124.41014 32764 ft 450 kts 87°
2026-04-23 21:23 37.18136 124.44920 32394 ft 444 kts 87°
2026-04-23 21:23 37.18211 124.48737 31983 ft 439 kts 87°
2026-04-23 21:23 37.18289 124.52567 31604 ft 434 kts 87°
2026-04-23 21:23 37.18367 124.56294 31218 ft 429 kts 86°
2026-04-23 21:24 37.18446 124.60030 30785 ft 426 kts 86°
2026-04-23 21:24 37.18524 124.63729 30277 ft 424 kts 86°
2026-04-23 21:24 37.18602 124.67436 29791 ft 419 kts 87°
2026-04-23 21:24 37.18680 124.71071 29251 ft 417 kts 87°
2026-04-23 21:25 37.18756 124.74691 28794 ft 412 kts 88°
2026-04-23 21:25 37.18831 124.78277 28323 ft 408 kts 88°
2026-04-23 21:25 37.18903 124.81810 27859 ft 404 kts 88°
2026-04-23 21:25 37.18974 124.85296 27390 ft 400 kts 88°
2026-04-23 21:26 37.19044 124.88760 26936 ft 396 kts 87°
2026-04-23 21:26 37.19112 124.92169 26503 ft 391 kts 88°
2026-04-23 21:26 37.19180 124.95579 26032 ft 387 kts 87°
2026-04-23 21:26 37.19245 124.98934 25563 ft 384 kts 87°
2026-04-23 21:27 37.19310 125.02271 25120 ft 380 kts 87°
2026-04-23 21:27 37.19372 125.05524 24682 ft 376 kts 87°
2026-04-23 21:27 37.19432 125.08785 24205 ft 373 kts 87°
2026-04-23 21:27 37.19492 125.12035 23764 ft 369 kts 87°
2026-04-23 21:28 37.19550 125.15231 23321 ft 365 kts 87°
2026-04-23 21:28 37.19608 125.18398 22862 ft 361 kts 87°
2026-04-23 21:28 37.19663 125.21521 22391 ft 358 kts 87°
2026-04-23 21:28 37.19718 125.24641 21891 ft 356 kts 87°
2026-04-23 21:29 37.19771 125.27727 21446 ft 352 kts 87°
2026-04-23 21:29 37.19822 125.30788 20945 ft 351 kts 87°
2026-04-23 21:29 37.19871 125.33824 20478 ft 348 kts 87°
2026-04-23 21:29 37.19918 125.36828 20033 ft 344 kts 87°
2026-04-23 21:30 37.19965 125.39787 19565 ft 342 kts 87°
2026-04-23 21:30 37.20011 125.42767 19097 ft 340 kts 87°
2026-04-23 21:30 37.20100 125.45714 18599 ft 338 kts 83°
2026-04-23 21:30 37.20479 125.48579 18174 ft 332 kts 72°
2026-04-23 21:31 37.21339 125.51232 17706 ft 328 kts 61°
2026-04-23 21:31 37.22471 125.53711 17294 ft 324 kts 57°
2026-04-23 21:31 37.23663 125.56092 16835 ft 322 kts 56°
2026-04-23 21:31 37.24863 125.58446 16409 ft 319 kts 56°
2026-04-23 21:32 37.26049 125.60791 15988 ft 316 kts 56°
2026-04-23 21:32 37.27211 125.63116 15534 ft 315 kts 56°
2026-04-23 21:32 37.28355 125.65432 15105 ft 312 kts 57°
2026-04-23 21:32 37.29489 125.67748 14760 ft 307 kts 57°
2026-04-23 21:33 37.30570 125.69970 14614 ft 295 kts 57°
2026-04-23 21:33 37.31622 125.72132 14477 ft 284 kts 57°
2026-04-23 21:33 37.32644 125.74232 14152 ft 281 kts 57°
2026-04-23 21:33 37.33658 125.76300 13812 ft 278 kts 56°
2026-04-23 21:34 37.34721 125.78333 13436 ft 276 kts 54°
2026-04-23 21:34 37.35799 125.80318 13027 ft 276 kts 54°
2026-04-23 21:34 37.36883 125.82301 12642 ft 275 kts 54°
2026-04-23 21:34 37.37955 125.84270 12269 ft 273 kts 54°
2026-04-23 21:35 37.39021 125.86235 11891 ft 272 kts 54°
2026-04-23 21:35 37.40078 125.88196 11498 ft 272 kts 54°
2026-04-23 21:35 37.41129 125.90155 10983 ft 270 kts 54°
2026-04-23 21:35 37.42169 125.92096 10418 ft 267 kts 55°
2026-04-23 21:36 37.44212 125.95935 9288 ft 263 kts 55°
2026-04-23 21:36 37.45227 125.97826 8714 ft 261 kts 55°
2026-04-23 21:36 37.46240 125.99715 8097 ft 261 kts 55°
2026-04-23 21:37 37.47254 126.01620 7526 ft 259 kts 56°
2026-04-23 21:37 37.48261 126.03514 6929 ft 258 kts 56°
2026-04-23 21:37 37.49255 126.05378 6351 ft 257 kts 56°
2026-04-23 21:37 37.50250 126.07243 5766 ft 257 kts 56°
2026-04-23 21:38 37.51238 126.09100 5219 ft 254 kts 56°
2026-04-23 21:38 37.52226 126.10953 4653 ft 253 kts 56°
2026-04-23 21:38 37.53201 126.12780 4109 ft 251 kts 55°
2026-04-23 21:38 37.54172 126.14603 3603 ft 248 kts 55°
2026-04-23 21:39 37.55127 126.16399 3270 ft 239 kts 55°
2026-04-23 21:39 37.56034 126.18108 3049 ft 227 kts 56°
2026-04-23 21:39 37.56879 126.19698 2883 ft 214 kts 55°
2026-04-23 21:39 37.57707 126.21194 2754 ft 198 kts 54°
2026-04-23 21:40 37.58479 126.22544 2740 ft 183 kts 54°
2026-04-23 21:40 37.59226 126.23847 2743 ft 184 kts 54°
2026-04-23 21:40 37.59957 126.25132 2770 ft 177 kts 54°
2026-04-23 21:40 37.60577 126.26450 2756 ft 172 kts 71°
2026-04-23 21:41 37.60649 126.27957 2761 ft 174 kts 103°
2026-04-23 21:41 37.60154 126.29346 2765 ft 174 kts 124°
2026-04-23 21:41 37.59299 126.30406 2766 ft 174 kts 144°
2026-04-23 21:41 37.58266 126.31231 2772 ft 174 kts 145°
2026-04-23 21:42 37.57309 126.32065 2691 ft 162 kts 143°
2026-04-23 21:42 37.56393 126.32894 2377 ft 158 kts 143°
2026-04-23 21:42 37.55521 126.33671 2155 ft 148 kts 143°
2026-04-23 21:42 37.54668 126.34428 1974 ft 150 kts 143°
2026-04-23 21:43 37.53813 126.35181 1790 ft 149 kts 143°
2026-04-23 21:43 37.52970 126.35924 1586 ft 149 kts 143°
2026-04-23 21:43 37.52111 126.36681 1337 ft 150 kts 142°
2026-04-23 21:43 37.51275 126.37447 1133 ft 148 kts 142°
2026-04-23 21:44 37.50426 126.38204 937 ft 148 kts 143°
2026-04-23 21:44 37.49581 126.38940 718 ft 149 kts 143°
2026-04-23 21:44 37.48738 126.39686 524 ft 149 kts 143°
2026-04-23 21:44 37.47890 126.40447 307 ft 148 kts 143°
2026-04-23 21:45 37.47051 126.41193 117 ft 148 kts 143°
2026-04-23 21:45 37.46233 126.41921 28 ft 132 kts 144°
2026-04-23 21:45 37.45607 126.42475 28 ft 90 kts 143°
2026-04-23 21:45 37.45226 126.42814 28 ft 37 kts 145°
2026-04-23 21:46 37.45127 126.42959 28 ft 18 kts 114°
2026-04-23 21:46 37.45094 126.43079 28 ft 12 kts 102°
2026-04-23 21:46 37.45071 126.43216 28 ft 14 kts 89°
2026-04-23 21:46 37.45124 126.43336 28 ft 19 kts 54°
2026-04-23 21:47 37.45216 126.43499 28 ft 23 kts 54°
2026-04-23 21:47 37.45301 126.43651 28 ft 16 kts 55°
2026-04-23 21:47 37.45295 126.43739 28 ft 13 kts 141°
2026-04-23 21:47 37.45195 126.43829 28 ft 21 kts 144°
2026-04-23 21:48 37.45075 126.43935 28 ft 18 kts 143°
2026-04-23 21:48 37.44980 126.44024 28 ft 13 kts 132°
2026-04-23 21:48 37.44997 126.44125 28 ft 15 kts 53°
2026-04-23 21:48 37.45065 126.44244 28 ft 19 kts 54°
2026-04-23 21:49 37.45154 126.44402 28 ft 15 kts 54°
2026-04-23 21:49 37.45168 126.44443 28 ft 0 kts 111°
2026-04-23 21:49 37.45151 126.44471 28 ft 8 kts 137°
2026-04-23 21:49 37.45107 126.44517 28 ft 3 kts 140°
2026-04-23 21:50 37.45097 126.44528 28 ft 0 kts 140°
2026-04-23 21:50 37.45096 126.44528 28 ft 0 kts 140°